Clarksville, TN

1:00 AM CDT on April 25, 2018 (GMT -0500)
Outlaw

Weather History for KCKV - May, 2013

Change the Weather History Date:

Wednesday, May 1, 2013

  Actual Average Record
Temperature  
Mean Temperature 68 °F 62 °F  
Max Temperature 80 °F 74 °F 94 °F (1951)
Min Temperature 55 °F 51 °F 33 °F (1963)
Degree Days  
Heating Degree Days 0    
Month to date heating degree days 0  
Since 1 July heating degree days 3874  
Cooling Degree Days 3    
Month to date cooling degree days 3  
Year to date cooling degree days  
Growing Degree Days 17 (Base 50)    
Moisture  
Dew Point 58 °F    
Average Humidity 69    
Maximum Humidity 93    
Minimum Humidity 45    
Precipitation  
Precipitation 0.00 in 0.24 in 1.60 in (1962)
Month to date precipitation 0.00 0.24  
Year to date precipitation 16.26  
Sea Level Pressure  
Sea Level Pressure 30.08 in    
Wind  
Wind Speed 4 mph (ESE)    
Max Wind Speed 15 mph    
Max Gust Speed 20 mph    
Visibility 10 miles    
Events      
T = Trace of Precipitation, MM = Missing Value Source: NWS Daily Summary

Daily Weather History Graph

Daily Weather History Graph

Search for Another Location

Airport or City:

Astronomy

May. 01, 2013 Rise Set
Actual Time 5:55 AM CDT 7:38 PM CDT
Civil Twilight 5:28 AM CDT 8:06 PM CDT
Nautical Twilight 4:54 AM CDT 8:39 PM CDT
Astronomical Twilight 4:19 AM CDT 9:15 PM CDT
Moon 12:47 AM CDT (5/1) 11:33 AM CDT (5/1)
Length of Visible Light 14h 38m
Length of Day
13h 42m
Waning Gibbous, 59% of the Moon is Illuminated
May 1
Waning Gibbous
May 2
Last Quarter
May 9
New
May 17
First Quarter
May 24
Full

Hourly Weather History & Observations

Time (CDT) Temp. Dew Point Humidity Pressure Visibility Wind Dir Wind Speed Gust Speed Precip Events Conditions
12:52 AM 59.0 °F 53.1 °F 81% 30.02 in 10.0 mi ESE 3.5 mph - N/A   Clear
1:52 AM 55.9 °F 53.1 °F 90% 30.01 in 10.0 mi SE 4.6 mph - N/A   Clear
2:52 AM 57.0 °F 53.1 °F 87% 30.02 in 10.0 mi SE 3.5 mph - N/A   Clear
3:52 AM 57.0 °F 54.0 °F 89% 30.02 in 10.0 mi Calm Calm - N/A   Clear
4:52 AM 55.9 °F 53.1 °F 90% 30.04 in 10.0 mi East 4.6 mph - N/A   Mostly Cloudy
5:52 AM 55.0 °F 52.0 °F 89% 30.06 in 10.0 mi ESE 4.6 mph - N/A   Clear
6:52 AM 59.0 °F 54.0 °F 83% 30.07 in 10.0 mi SE 3.5 mph - N/A   Clear
7:52 AM 64.0 °F 57.0 °F 78% 30.10 in 10.0 mi SE 6.9 mph - N/A   Clear
8:52 AM 68.0 °F 59.0 °F 73% 30.12 in 10.0 mi SSE 9.2 mph - N/A   Clear
9:52 AM 70.0 °F 60.1 °F 71% 30.12 in 10.0 mi SSE 6.9 mph 16.1 mph N/A   Clear
10:52 AM 75.0 °F 61.0 °F 62% 30.12 in 10.0 mi SSE 6.9 mph - N/A   Clear
11:52 AM 78.1 °F 61.0 °F 56% 30.11 in 10.0 mi SE 6.9 mph - N/A   Clear
12:52 PM 79.0 °F 61.0 °F 54% 30.10 in 10.0 mi Variable 5.8 mph - N/A   Clear
1:52 PM 79.0 °F 60.1 °F 52% 30.10 in 10.0 mi East 10.4 mph - N/A   Mostly Cloudy
2:52 PM 79.0 °F 59.0 °F 50% 30.09 in 10.0 mi East 8.1 mph - N/A   Clear
3:52 PM 79.0 °F 55.9 °F 45% 30.08 in 10.0 mi East 8.1 mph - N/A   Scattered Clouds
4:52 PM 77.0 °F 59.0 °F 54% 30.08 in 10.0 mi ESE 6.9 mph - N/A   Partly Cloudy
5:52 PM 75.9 °F 59.0 °F 56% 30.07 in 10.0 mi East 5.8 mph - N/A   Overcast
6:52 PM 75.0 °F 60.1 °F 60% 30.07 in 10.0 mi East 3.5 mph - N/A   Partly Cloudy
7:52 PM 73.0 °F 59.0 °F 61% 30.07 in 10.0 mi Calm Calm - N/A   Clear
8:52 PM 71.1 °F 62.1 °F 73% 30.08 in 10.0 mi Calm Calm - N/A   Clear
9:52 PM 68.0 °F 61.0 °F 78% 30.09 in 10.0 mi Calm Calm - N/A   Mostly Cloudy
10:52 PM 68.0 °F 61.0 °F 78% 30.09 in 10.0 mi Calm Calm - N/A   Clear
11:52 PM 64.9 °F 61.0 °F 87% 30.09 in 10.0 mi Calm Calm - N/A   Clear